,,PA_Meas_PMT16A,,PR_Meas_QMR101_102,,RH_Meas_QMH101,,SR_Meas_QMS101,,TA_Meas_QMH101,,GenWind,,GenWind,
time,status,PA,status,PR,status,RH,status,SR,status,TA,status,DirAvg,status,SpdAvg,
2013-04-26, 00:00:04,VALID,919.516,VALID,0,VALID,96.2761,VALID,0,VALID,20.7576,VALID,288,VALID,0,
2013-04-26, 00:01:04,VALID,919.511,VALID,0,VALID,96.2533,VALID,0,VALID,20.7771,VALID,288,VALID,0,
2013-04-26, 00:02:04,VALID,919.492,VALID,0,VALID,96.299,VALID,0,VALID,20.7771,VALID,288,VALID,0,
2013-04-26, 00:03:04,VALID,919.47,VALID,0,VALID,96.2761,VALID,0,VALID,20.756,VALID,288,VALID,0,
2013-04-26, 00:04:04,VALID,919.455,VALID,0,VALID,96.2609,VALID,0,VALID,20.7365,VALID,288,VALID,0,
2013-04-26, 00:05:04,VALID,919.454,VALID,0,VALID,96.2228,VALID,0,VALID,20.7365,VALID,288,VALID,0,
2013-04-26, 00:06:04,VALID,919.444,VALID,0,VALID,96.2228,VALID,0,VALID,20.717,VALID,288,VALID,0,
2013-04-26, 00:07:04,VALID,919.463,VALID,0,VALID,96.1846,VALID,0,VALID,20.678,VALID,71,VALID,0,
2013-04-26, 00:08:04,VALID,919.465,VALID,0,VALID,96.2075,VALID,0,VALID,20.6795,VALID,71,VALID,0,
2013-04-26, 00:09:04,VALID,919.481,VALID,0,VALID,96.2533,VALID,0,VALID,20.699,VALID,71,VALID,0,
2013-04-26, 00:10:04,VALID,919.444,VALID,0,VALID,96.238,VALID,0,VALID,20.639,VALID,71,VALID,0,
2013-04-26, 00:11:04,VALID,919.428,VALID,0,VALID,96.238,VALID,0,VALID,20.6194,VALID,71,VALID,0,
2013-04-26, 00:12:04,VALID,919.418,VALID,0,VALID,96.2533,VALID,0,VALID,20.6405,VALID,41,VALID,0,
2013-04-26, 00:13:04,VALID,919.401,VALID,0,VALID,96.3066,VALID,0,VALID,20.699,VALID,20,VALID,0,
2013-04-26, 00:14:04,VALID,919.387,VALID,0,VALID,96.3219,VALID,0,VALID,20.699,VALID,20,VALID,0,
2013-04-26, 00:15:04,VALID,919.389,VALID,0,VALID,96.3066,VALID,0,VALID,20.6795,VALID,17,VALID,0,
2013-04-26, 00:16:04,VALID,919.38,VALID,0,VALID,96.2609,VALID,0,VALID,20.66,VALID,16,VALID,0,
2013-04-26, 00:17:04,VALID,919.364,VALID,0,VALID,96.2304,VALID,0,VALID,20.66,VALID,13,VALID,0,
2013-04-26, 00:18:04,VALID,919.375,VALID,0,VALID,96.238,VALID,0,VALID,20.6795,VALID,17,VALID,0,
2013-04-26, 00:19:04,VALID,919.369,VALID,0,VALID,96.2304,VALID,0,VALID,20.639,VALID,17,VALID,0,
2013-04-26, 00:20:04,VALID,919.384,VALID,0,VALID,96.2456,VALID,0,VALID,20.6795,VALID,17,VALID,0,
2013-04-26, 00:21:04,VALID,919.371,VALID,0,VALID,96.2151,VALID,0,VALID,20.6585,VALID,351,VALID,0,
2013-04-26, 00:22:04,VALID,919.386,VALID,0,VALID,96.177,VALID,0,VALID,20.6405,VALID,1,VALID,0,
2013-04-26, 00:23:04,VALID,919.364,VALID,0,VALID,96.177,VALID,0,VALID,20.6405,VALID,3,VALID,0,
2013-04-26, 00:24:04,VALID,919.402,VALID,0,VALID,96.1923,VALID,0,VALID,20.66,VALID,18,VALID,0,
2013-04-26, 00:25:04,VALID,919.358,VALID,0,VALID,96.2533,VALID,0,VALID,20.6795,VALID,24,VALID,0,
2013-04-26, 00:26:04,VALID,919.346,VALID,0,VALID,96.2304,VALID,0,VALID,20.6795,VALID,11,VALID,0,
2013-04-26, 00:27:04,VALID,919.33,VALID,0,VALID,96.2228,VALID,0,VALID,20.639,VALID,11,VALID,0,
2013-04-26, 00:28:04,VALID,919.321,VALID,0,VALID,96.1999,VALID,0,VALID,20.6585,VALID,11,VALID,0,
2013-04-26, 00:29:04,VALID,919.337,VALID,0,VALID,96.177,VALID,0,VALID,20.639,VALID,11,VALID,0,
2013-04-26, 00:30:04,VALID,919.289,VALID,0,VALID,96.1541,VALID,0,VALID,20.6194,VALID,15,VALID,0,
2013-04-26, 00:31:04,VALID,919.243,VALID,0,VALID,96.1389,VALID,0,VALID,20.6194,VALID,15,VALID,0,
2013-04-26, 00:32:04,VALID,919.177,VALID,0,VALID,96.1236,VALID,0,VALID,20.6194,VALID,15,VALID,0,
2013-04-26, 00:33:04,VALID,919.141,VALID,0,VALID,96.1313,VALID,0,VALID,20.6194,VALID,15,VALID,0,
2013-04-26, 00:34:04,VALID,919.088,VALID,0,VALID,96.1008,VALID,0,VALID,20.6405,VALID,15,VALID,0,
2013-04-26, 00:35:04,VALID,919.056,VALID,0,VALID,96.0932,VALID,0,VALID,20.6194,VALID,15,VALID,0,
2013-04-26, 00:36:04,VALID,919.033,VALID,0,VALID,96.0855,VALID,0,VALID,20.621,VALID,15,VALID,0,
2013-04-26, 00:37:04,VALID,919.053,VALID,0,VALID,96.0855,VALID,0,VALID,20.621,VALID,15,VALID,0,
2013-04-26, 00:38:04,VALID,919.036,VALID,0,VALID,96.0932,VALID,0,VALID,20.6194,VALID,15,VALID,0,
2013-04-26, 00:39:04,VALID,919.018,VALID,0,VALID,96.055,VALID,0,VALID,20.6194,VALID,15,VALID,0,
2013-04-26, 00:40:04,VALID,919.008,VALID,0,VALID,96.0322,VALID,0,VALID,20.6015,VALID,15,VALID,0,
2013-04-26, 00:41:04,VALID,919.008,VALID,0,VALID,95.9712,VALID,0,VALID,20.6015,VALID,15,VALID,0,
2013-04-26, 00:42:04,VALID,918.999,VALID,0,VALID,95.9712,VALID,0,VALID,20.5414,VALID,15,VALID,0,
2013-04-26, 00:43:04,VALID,918.982,VALID,0,VALID,95.9788,VALID,0,VALID,20.5625,VALID,58,VALID,0,
2013-04-26, 00:44:04,VALID,918.965,VALID,0,VALID,95.9788,VALID,0,VALID,20.5235,VALID,58,VALID,0,
2013-04-26, 00:45:04,VALID,918.951,VALID,0,VALID,95.9864,VALID,0,VALID,20.5024,VALID,58,VALID,0,
2013-04-26, 00:46:04,VALID,918.896,VALID,0,VALID,95.9788,VALID,0,VALID,20.5024,VALID,59,VALID,0,
2013-04-26, 00:47:04,VALID,918.854,VALID,0,VALID,96.0245,VALID,0,VALID,20.5024,VALID,59,VALID,0,
2013-04-26, 00:48:04,VALID,918.832,VALID,0,VALID,96.0169,VALID,0,VALID,20.504,VALID,59,VALID,0,
2013-04-26, 00:49:04,VALID,918.812,VALID,0,VALID,96.0245,VALID,0,VALID,20.504,VALID,58,VALID,0,
2013-04-26, 00:50:04,VALID,918.765,VALID,0,VALID,96.0474,VALID,0,VALID,20.543,VALID,58,VALID,0,
2013-04-26, 00:51:04,VALID,918.745,VALID,0,VALID,96.0627,VALID,0,VALID,20.543,VALID,58,VALID,0,
2013-04-26, 00:52:04,VALID,918.714,VALID,0,VALID,96.1008,VALID,0,VALID,20.543,VALID,58,VALID,0,
2013-04-26, 00:53:04,VALID,918.698,VALID,0,VALID,96.0779,VALID,0,VALID,20.5235,VALID,58,VALID,0,
2013-04-26, 00:54:04,VALID,918.675,VALID,0,VALID,96.0627,VALID,0,VALID,20.5024,VALID,58,VALID,0,
2013-04-26, 00:55:04,VALID,918.623,VALID,0,VALID,96.0779,VALID,0,VALID,20.5024,VALID,58,VALID,0,
2013-04-26, 00:56:04,VALID,918.58,VALID,0,VALID,96.0779,VALID,0,VALID,20.5024,VALID,58,VALID,0,
2013-04-26, 00:57:04,VALID,918.598,VALID,0,VALID,96.1008,VALID,0,VALID,20.5235,VALID,58,VALID,0,
2013-04-26, 00:58:04,VALID,918.58,VALID,0,VALID,96.055,VALID,0,VALID,20.504,VALID,58,VALID,0,
2013-04-26, 00:59:04,VALID,918.571,VALID,0,VALID,96.0474,VALID,0,VALID,20.4829,VALID,58,VALID,0,
2013-04-26, 01:00:04,VALID,918.562,VALID,0,VALID,96.0703,VALID,0,VALID,20.4829,VALID,58,VALID,0,
2013-04-26, 01:01:04,VALID,918.57,VALID,0,VALID,96.0779,VALID,0,VALID,20.4634,VALID,58,VALID,0,
2013-04-26, 01:02:04,VALID,918.528,VALID,0,VALID,96.0703,VALID,0,VALID,20.4439,VALID,58,VALID,0,
2013-04-26, 01:03:04,VALID,918.53,VALID,0,VALID,96.0703,VALID,0,VALID,20.4244,VALID,98,VALID,0,
2013-04-26, 01:04:04,VALID,918.509,VALID,0,VALID,96.1008,VALID,0,VALID,20.4259,VALID,124,VALID,0,
2013-04-26, 01:05:04,VALID,918.488,VALID,0,VALID,96.1313,VALID,0,VALID,20.4049,VALID,125,VALID,0,
2013-04-26, 01:06:04,VALID,918.471,VALID,0,VALID,96.1465,VALID,0,VALID,20.4049,VALID,125,VALID,0,
2013-04-26, 01:07:04,VALID,918.437,VALID,0,VALID,96.1923,VALID,0,VALID,20.3854,VALID,125,VALID,0,
2013-04-26, 01:08:04,VALID,918.421,VALID,0,VALID,96.2151,VALID,0,VALID,20.3854,VALID,125,VALID,0,
2013-04-26, 01:09:04,VALID,918.397,VALID,0,VALID,96.2533,VALID,0,VALID,20.3854,VALID,125,VALID,0,
2013-04-26, 01:10:04,VALID,918.387,VALID,0,VALID,96.2761,VALID,0,VALID,20.3854,VALID,125,VALID,0,
2013-04-26, 01:11:04,VALID,918.378,VALID,0,VALID,96.3142,VALID,0,VALID,20.3659,VALID,125,VALID,0,
2013-04-26, 01:12:04,VALID,918.428,VALID,0,VALID,96.3219,VALID,0,VALID,20.3659,VALID,125,VALID,0,
2013-04-26, 01:13:04,VALID,918.378,VALID,0,VALID,96.3524,VALID,0,VALID,20.3464,VALID,125,VALID,0,
2013-04-26, 01:14:04,VALID,918.381,VALID,0,VALID,96.3829,VALID,0,VALID,20.3269,VALID,125,VALID,0,
2013-04-26, 01:15:04,VALID,918.354,VALID,0,VALID,96.4057,VALID,0,VALID,20.3269,VALID,125,VALID,0,
2013-04-26, 01:16:04,VALID,918.387,VALID,0,VALID,96.4362,VALID,0,VALID,20.3269,VALID,125,VALID,0,
2013-04-26, 01:17:04,VALID,918.326,VALID,0,VALID,96.4438,VALID,0,VALID,20.3269,VALID,125,VALID,0,
2013-04-26, 01:18:04,VALID,918.353,VALID,0,VALID,96.4743,VALID,0,VALID,20.3464,VALID,125,VALID,0,
2013-04-26, 01:19:04,VALID,918.312,VALID,0,VALID,96.4819,VALID,0,VALID,20.3269,VALID,125,VALID,0,
2013-04-26, 01:20:04,VALID,918.322,VALID,0,VALID,96.4972,VALID,0,VALID,20.3464,VALID,125,VALID,0,
2013-04-26, 01:21:04,VALID,918.297,VALID,0,VALID,96.5201,VALID,0,VALID,20.3074,VALID,125,VALID,0,
2013-04-26, 01:22:04,VALID,918.29,VALID,0,VALID,96.4972,VALID,0,VALID,20.3074,VALID,125,VALID,0,
2013-04-26, 01:23:04,VALID,918.236,VALID,0,VALID,96.5277,VALID,0,VALID,20.2684,VALID,125,VALID,0,
2013-04-26, 01:24:04,VALID,918.22,VALID,0,VALID,96.5429,VALID,0,VALID,20.2684,VALID,125,VALID,0,
2013-04-26, 01:25:04,VALID,918.22,VALID,0,VALID,96.5506,VALID,0,VALID,20.2489,VALID,125,VALID,0,
2013-04-26, 01:26:04,VALID,918.141,VALID,0,VALID,96.5506,VALID,0,VALID,20.2293,VALID,125,VALID,0,
2013-04-26, 01:27:04,VALID,918.104,VALID,0,VALID,96.5734,VALID,0,VALID,20.1903,VALID,124,VALID,0,
2013-04-26, 01:28:04,VALID,918.105,VALID,0,VALID,96.5506,VALID,0,VALID,20.1708,VALID,125,VALID,0,
2013-04-26, 01:29:04,VALID,918.085,VALID,0,VALID,96.5506,VALID,0,VALID,20.1513,VALID,125,VALID,0,
2013-04-26, 01:30:04,VALID,918.083,VALID,0,VALID,96.5658,VALID,0,VALID,20.1318,VALID,122,VALID,0,
2013-04-26, 01:31:04,VALID,918.014,VALID,0,VALID,96.5734,VALID,0,VALID,20.1318,VALID,122,VALID,0,
2013-04-26, 01:32:04,VALID,918.004,VALID,0,VALID,96.5811,VALID,0,VALID,20.1123,VALID,122,VALID,0,
2013-04-26, 01:33:04,VALID,917.939,VALID,0,VALID,96.5887,VALID,0,VALID,20.1123,VALID,122,VALID,0,
2013-04-26, 01:34:04,VALID,917.953,VALID,0,VALID,96.6115,VALID,0,VALID,20.0928,VALID,122,VALID,0,
2013-04-26, 01:35:04,VALID,917.92,VALID,0,VALID,96.6268,VALID,0,VALID,20.1139,VALID,122,VALID,0,
2013-04-26, 01:36:04,VALID,917.878,VALID,0,VALID,96.642,VALID,0,VALID,20.0733,VALID,122,VALID,0,
2013-04-26, 01:37:04,VALID,917.881,VALID,0,VALID,96.6573,VALID,0,VALID,20.1139,VALID,122,VALID,0,
2013-04-26, 01:38:04,VALID,917.839,VALID,0,VALID,96.6802,VALID,0,VALID,20.1123,VALID,121,VALID,0,
2013-04-26, 01:39:04,VALID,917.838,VALID,0,VALID,96.6954,VALID,0,VALID,20.1123,VALID,122,VALID,0,
2013-04-26, 01:40:04,VALID,917.817,VALID,0,VALID,96.7183,VALID,0,VALID,20.1529,VALID,122,VALID,0,
2013-04-26, 01:41:04,VALID,917.792,VALID,0,VALID,96.7259,VALID,0,VALID,20.1318,VALID,122,VALID,0,
2013-04-26, 01:42:04,VALID,917.804,VALID,0,VALID,96.764,VALID,0,VALID,20.1318,VALID,122,VALID,0,
2013-04-26, 01:43:04,VALID,917.752,VALID,0,VALID,96.7564,VALID,0,VALID,20.1529,VALID,123,VALID,0,
2013-04-26, 01:44:04,VALID,917.78,VALID,0,VALID,96.7335,VALID,0,VALID,20.1513,VALID,123,VALID,0,
2013-04-26, 01:45:04,VALID,917.772,VALID,0,VALID,96.7564,VALID,0,VALID,20.1318,VALID,123,VALID,0,
2013-04-26, 01:46:04,VALID,917.795,VALID,0,VALID,96.7793,VALID,0,VALID,20.1724,VALID,124,VALID,0,
2013-04-26, 01:47:04,VALID,917.774,VALID,0,VALID,96.7869,VALID,0,VALID,20.1724,VALID,124,VALID,0,
2013-04-26, 01:48:04,VALID,917.791,VALID,0,VALID,96.8174,VALID,0,VALID,20.1919,VALID,124,VALID,0,
2013-04-26, 01:49:04,VALID,917.785,VALID,0,VALID,96.8021,VALID,0,VALID,20.1724,VALID,154,VALID,0,
2013-04-26, 01:50:04,VALID,917.834,VALID,0,VALID,96.825,VALID,0,VALID,20.1513,VALID,168,VALID,0,
2013-04-26, 01:51:04,VALID,917.816,VALID,0,VALID,96.8326,VALID,0,VALID,20.1724,VALID,168,VALID,0,
2013-04-26, 01:52:04,VALID,917.815,VALID,0,VALID,96.8326,VALID,0,VALID,20.1724,VALID,168,VALID,0,
2013-04-26, 01:53:04,VALID,917.798,VALID,0,VALID,96.8555,VALID,0,VALID,20.1919,VALID,164,VALID,0,
2013-04-26, 01:54:04,VALID,917.782,VALID,0,VALID,96.8707,VALID,0,VALID,20.1513,VALID,163,VALID,0,
2013-04-26, 01:55:04,VALID,917.794,VALID,0,VALID,96.8555,VALID,0,VALID,20.1919,VALID,166,VALID,0,
2013-04-26, 01:56:04,VALID,917.781,VALID,0,VALID,96.8555,VALID,0,VALID,20.1724,VALID,173,VALID,0,
2013-04-26, 01:57:04,VALID,917.738,VALID,0,VALID,96.8631,VALID,0,VALID,20.1724,VALID,173,VALID,0,
2013-04-26, 01:58:04,VALID,917.75,VALID,0,VALID,96.886,VALID,0,VALID,20.1708,VALID,173,VALID,0,
2013-04-26, 01:59:04,VALID,917.723,VALID,0,VALID,96.8631,VALID,0,VALID,20.1903,VALID,173,VALID,0,
2013-04-26, 02:00:04,VALID,917.726,VALID,0,VALID,96.9089,VALID,0.107441,VALID,20.1903,VALID,161,VALID,0,
2013-04-26, 02:01:04,VALID,917.75,VALID,0,VALID,96.9165,VALID,0.107441,VALID,20.1903,VALID,158,VALID,0,
2013-04-26, 02:02:04,VALID,917.735,VALID,0,VALID,96.9012,VALID,0,VALID,20.1708,VALID,172,VALID,0,
2013-04-26, 02:03:04,VALID,917.747,VALID,0,VALID,96.9012,VALID,0.107441,VALID,20.1498,VALID,161,VALID,0,
2013-04-26, 02:04:04,VALID,917.727,VALID,0,VALID,96.9012,VALID,0,VALID,20.1498,VALID,142,VALID,0,
2013-04-26, 02:05:04,VALID,917.712,VALID,0,VALID,96.9317,VALID,0,VALID,20.1708,VALID,143,VALID,0,
2013-04-26, 02:06:04,VALID,917.721,VALID,0,VALID,96.9394,VALID,0,VALID,20.1708,VALID,185,VALID,0,
2013-04-26, 02:07:04,VALID,917.726,VALID,0,VALID,96.9241,VALID,0,VALID,20.1498,VALID,185,VALID,0,
2013-04-26, 02:08:04,VALID,917.712,VALID,0,VALID,96.9394,VALID,0,VALID,20.1513,VALID,185,VALID,0,
2013-04-26, 02:09:04,VALID,917.67,VALID,0,VALID,96.9394,VALID,0.107441,VALID,20.1513,VALID,185,VALID,0,
2013-04-26, 02:10:04,VALID,917.681,VALID,0,VALID,96.9394,VALID,0,VALID,20.1708,VALID,185,VALID,0,
2013-04-26, 02:11:04,VALID,917.648,VALID,0,VALID,96.9622,VALID,0,VALID,20.1498,VALID,185,VALID,0,
2013-04-26, 02:12:04,VALID,917.619,VALID,0,VALID,96.9546,VALID,0.107441,VALID,20.1708,VALID,185,VALID,0,
2013-04-26, 02:13:04,VALID,917.602,VALID,0,VALID,96.9394,VALID,0,VALID,20.1708,VALID,184,VALID,0,
2013-04-26, 02:14:05,VALID,917.601,VALID,0,VALID,96.947,VALID,0,VALID,20.1513,VALID,184,VALID,0,
2013-04-26, 02:15:05,VALID,917.595,VALID,0,VALID,96.9546,VALID,0,VALID,20.1529,VALID,183,VALID,0,
2013-04-26, 02:16:05,VALID,917.555,VALID,0,VALID,96.947,VALID,0,VALID,20.1529,VALID,152,VALID,0,
2013-04-26, 02:17:05,VALID,917.575,VALID,0,VALID,96.9622,VALID,0,VALID,20.1529,VALID,152,VALID,0,
2013-04-26, 02:18:05,VALID,917.567,VALID,0,VALID,96.9698,VALID,0,VALID,20.1513,VALID,159,VALID,0,
2013-04-26, 02:19:05,VALID,917.542,VALID,0,VALID,96.9546,VALID,0,VALID,20.1513,VALID,158,VALID,0,
2013-04-26, 02:20:05,VALID,917.544,VALID,0,VALID,96.9775,VALID,0,VALID,20.1529,VALID,157,VALID,0,
2013-04-26, 02:21:05,VALID,917.544,VALID,0,VALID,96.9775,VALID,0,VALID,20.1724,VALID,157,VALID,0,
2013-04-26, 02:22:05,VALID,917.528,VALID,0,VALID,96.947,VALID,0,VALID,20.1513,VALID,178,VALID,0,
2013-04-26, 02:23:05,VALID,917.53,VALID,0,VALID,96.9546,VALID,0,VALID,20.1529,VALID,180,VALID,0,
2013-04-26, 02:24:05,VALID,917.528,VALID,0,VALID,96.947,VALID,0,VALID,20.1529,VALID,180,VALID,0,
2013-04-26, 02:25:05,VALID,917.506,VALID,0,VALID,96.9622,VALID,0,VALID,20.1724,VALID,181,VALID,0,
2013-04-26, 02:26:05,VALID,917.469,VALID,0,VALID,96.9698,VALID,0,VALID,20.1318,VALID,180,VALID,0,
2013-04-26, 02:27:05,VALID,917.454,VALID,0,VALID,96.9698,VALID,0,VALID,20.1513,VALID,181,VALID,0,
2013-04-26, 02:28:05,VALID,917.444,VALID,0,VALID,96.9546,VALID,0.107441,VALID,20.1724,VALID,181,VALID,0,
2013-04-26, 02:29:05,VALID,917.357,VALID,0,VALID,96.9698,VALID,0.107441,VALID,20.1708,VALID,178,VALID,0,
2013-04-26, 02:30:05,VALID,917.387,VALID,0,VALID,96.9698,VALID,0,VALID,20.1708,VALID,169,VALID,0,
2013-04-26, 02:31:05,VALID,917.36,VALID,0,VALID,96.9851,VALID,0,VALID,20.1318,VALID,153,VALID,0,
2013-04-26, 02:32:05,VALID,917.35,VALID,0,VALID,96.9851,VALID,0.107441,VALID,20.1123,VALID,153,VALID,0,
2013-04-26, 02:33:05,VALID,917.367,VALID,0,VALID,96.9622,VALID,0.107441,VALID,20.0913,VALID,153,VALID,0,
2013-04-26, 02:34:05,VALID,917.344,VALID,0,VALID,96.9698,VALID,0,VALID,20.1318,VALID,153,VALID,0,
2013-04-26, 02:35:05,VALID,917.32,VALID,0,VALID,97.0003,VALID,0,VALID,20.1318,VALID,155,VALID,0,
2013-04-26, 02:36:05,VALID,917.286,VALID,0,VALID,96.9775,VALID,0.107441,VALID,20.1318,VALID,155,VALID,0,
2013-04-26, 02:37:05,VALID,917.282,VALID,0,VALID,96.9927,VALID,0,VALID,20.1318,VALID,167,VALID,0,
2013-04-26, 02:38:05,VALID,917.261,VALID,0,VALID,97.0003,VALID,0,VALID,20.0913,VALID,141,VALID,0,
2013-04-26, 02:39:05,VALID,917.227,VALID,0,VALID,96.9851,VALID,0,VALID,20.1108,VALID,138,VALID,0,
2013-04-26, 02:40:05,VALID,917.222,VALID,0,VALID,96.9851,VALID,0.107441,VALID,20.1108,VALID,134,VALID,0,
2013-04-26, 02:41:05,VALID,917.219,VALID,0,VALID,97.0156,VALID,0.107441,VALID,20.1123,VALID,129,VALID,0,
2013-04-26, 02:42:05,VALID,917.209,VALID,0,VALID,97.0156,VALID,0.107441,VALID,20.1123,VALID,129,VALID,0,
2013-04-26, 02:43:05,VALID,917.205,VALID,0,VALID,97.0232,VALID,0.107441,VALID,20.0913,VALID,130,VALID,0,
2013-04-26, 02:44:05,VALID,917.19,VALID,0,VALID,97.0156,VALID,0,VALID,20.0928,VALID,129,VALID,0,
2013-04-26, 02:45:05,VALID,917.188,VALID,0,VALID,97.0156,VALID,0,VALID,20.0733,VALID,130,VALID,0,
2013-04-26, 02:46:05,VALID,917.182,VALID,0,VALID,97.0156,VALID,0,VALID,20.0944,VALID,130,VALID,0,
2013-04-26, 02:47:05,VALID,917.185,VALID,0,VALID,97.0156,VALID,0,VALID,20.0749,VALID,129,VALID,0,
2013-04-26, 02:48:05,VALID,917.164,VALID,0,VALID,97.0232,VALID,0,VALID,20.0553,VALID,130,VALID,0,
2013-04-26, 02:49:05,VALID,917.143,VALID,0,VALID,97.008,VALID,0,VALID,20.0358,VALID,129,VALID,0,
2013-04-26, 02:50:05,VALID,917.137,VALID,0,VALID,97.008,VALID,0,VALID,20.0358,VALID,130,VALID,0,
2013-04-26, 02:51:05,VALID,917.148,VALID,0,VALID,97.008,VALID,0,VALID,20.0358,VALID,129,VALID,0,
2013-04-26, 02:52:05,VALID,917.132,VALID,0,VALID,97.0156,VALID,0,VALID,20.0358,VALID,129,VALID,0,
2013-04-26, 02:53:05,VALID,917.157,VALID,0,VALID,97.008,VALID,0,VALID,20.0163,VALID,130,VALID,0,
2013-04-26, 02:54:05,VALID,917.146,VALID,0,VALID,97.0232,VALID,0,VALID,19.9968,VALID,130,VALID,0,
2013-04-26, 02:55:05,VALID,917.112,VALID,0,VALID,97.0461,VALID,0,VALID,19.9968,VALID,130,VALID,0,
2013-04-26, 02:56:05,VALID,917.127,VALID,0,VALID,97.008,VALID,0,VALID,19.9968,VALID,130,VALID,0,
2013-04-26, 02:57:05,VALID,917.13,VALID,0,VALID,97.0308,VALID,0,VALID,19.9968,VALID,129,VALID,0,
2013-04-26, 02:58:05,VALID,917.129,VALID,0,VALID,97.0385,VALID,0,VALID,19.9968,VALID,129,VALID,0,
2013-04-26, 02:59:05,VALID,917.12,VALID,0,VALID,97.0385,VALID,0.107441,VALID,19.9758,VALID,130,VALID,0,
2013-04-26, 03:00:05,VALID,917.088,VALID,0,VALID,97.0613,VALID,0,VALID,19.9563,VALID,129,VALID,0,
2013-04-26, 03:01:05,VALID,917.122,VALID,0,VALID,97.0461,VALID,0,VALID,19.9563,VALID,129,VALID,0,
2013-04-26, 03:02:05,VALID,917.122,VALID,0,VALID,97.0613,VALID,0,VALID,19.9368,VALID,129,VALID,0,
2013-04-26, 03:03:05,VALID,917.116,VALID,0,VALID,97.0461,VALID,0.107441,VALID,19.9353,VALID,122,VALID,0,
2013-04-26, 03:04:05,VALID,917.092,VALID,0,VALID,97.0461,VALID,0,VALID,19.9368,VALID,85,VALID,0,
2013-04-26, 03:05:05,VALID,917.059,VALID,0,VALID,97.0613,VALID,0,VALID,19.9368,VALID,85,VALID,0,
2013-04-26, 03:06:05,VALID,917.006,VALID,0,VALID,97.0766,VALID,0,VALID,19.9563,VALID,85,VALID,0,
2013-04-26, 03:07:05,VALID,917.013,VALID,0,VALID,97.0766,VALID,0,VALID,19.9368,VALID,85,VALID,0,
2013-04-26, 03:08:05,VALID,917.027,VALID,0,VALID,97.0766,VALID,0,VALID,19.9368,VALID,85,VALID,0,
2013-04-26, 03:09:05,VALID,916.99,VALID,0,VALID,97.0842,VALID,0,VALID,19.9353,VALID,85,VALID,0,
2013-04-26, 03:10:05,VALID,917.003,VALID,0,VALID,97.0918,VALID,0.107441,VALID,19.9368,VALID,85,VALID,0,
2013-04-26, 03:11:05,VALID,916.976,VALID,0,VALID,97.0842,VALID,0,VALID,19.8963,VALID,85,VALID,0,
2013-04-26, 03:12:05,VALID,916.974,VALID,0,VALID,97.0842,VALID,0,VALID,19.9368,VALID,85,VALID,0,
2013-04-26, 03:13:05,VALID,916.983,VALID,0,VALID,97.0994,VALID,0,VALID,19.9368,VALID,85,VALID,0,
2013-04-26, 03:14:05,VALID,916.982,VALID,0,VALID,97.1071,VALID,0,VALID,19.9383,VALID,97,VALID,0,
2013-04-26, 03:15:05,VALID,917.008,VALID,0,VALID,97.0994,VALID,0,VALID,19.9383,VALID,97,VALID,0,
2013-04-26, 03:16:05,VALID,917.001,VALID,0,VALID,97.0994,VALID,0,VALID,19.9188,VALID,97,VALID,0,
2013-04-26, 03:17:05,VALID,916.974,VALID,0,VALID,97.0994,VALID,0,VALID,19.9383,VALID,94,VALID,0,
2013-04-26, 03:18:05,VALID,916.997,VALID,0,VALID,97.1223,VALID,0,VALID,19.9368,VALID,89,VALID,0,
2013-04-26, 03:19:05,VALID,916.979,VALID,0,VALID,97.1299,VALID,0,VALID,19.9578,VALID,89,VALID,0,
2013-04-26, 03:20:05,VALID,917.003,VALID,0,VALID,97.1223,VALID,0,VALID,19.9173,VALID,89,VALID,0,
2013-04-26, 03:21:05,VALID,916.992,VALID,0,VALID,97.1147,VALID,0,VALID,19.9383,VALID,110,VALID,0,
2013-04-26, 03:22:05,VALID,917.003,VALID,0,VALID,97.1147,VALID,0,VALID,19.9563,VALID,110,VALID,0,
2013-04-26, 03:23:05,VALID,916.974,VALID,0,VALID,97.1376,VALID,0,VALID,19.9773,VALID,110,VALID,0,
2013-04-26, 03:24:05,VALID,916.979,VALID,0,VALID,97.0994,VALID,0,VALID,19.9578,VALID,110,VALID,0,
2013-04-26, 03:25:05,VALID,916.986,VALID,0,VALID,97.1299,VALID,0,VALID,19.9383,VALID,106,VALID,0,
2013-04-26, 03:26:05,VALID,916.967,VALID,0,VALID,97.1299,VALID,0,VALID,19.9188,VALID,103,VALID,0,
2013-04-26, 03:27:05,VALID,916.971,VALID,0,VALID,97.1147,VALID,0,VALID,19.9188,VALID,103,VALID,0,
2013-04-26, 03:28:05,VALID,916.97,VALID,0,VALID,97.1299,VALID,0,VALID,19.8993,VALID,96,VALID,0,
2013-04-26, 03:29:05,VALID,916.957,VALID,0,VALID,97.1376,VALID,0,VALID,19.8993,VALID,89,VALID,0,
2013-04-26, 03:30:05,VALID,916.957,VALID,0,VALID,97.1223,VALID,0,VALID,19.8798,VALID,85,VALID,0,
2013-04-26, 03:31:05,VALID,917,VALID,0,VALID,97.1147,VALID,0,VALID,19.8798,VALID,85,VALID,0,
2013-04-26, 03:32:05,VALID,916.993,VALID,0,VALID,97.0994,VALID,0,VALID,19.8993,VALID,85,VALID,0,
2013-04-26, 03:33:05,VALID,916.995,VALID,0,VALID,97.0994,VALID,0,VALID,19.8798,VALID,85,VALID,0,
2013-04-26, 03:34:05,VALID,916.998,VALID,0,VALID,97.1071,VALID,0,VALID,19.8798,VALID,85,VALID,0,
2013-04-26, 03:35:05,VALID,917.031,VALID,0,VALID,97.1071,VALID,0,VALID,19.8798,VALID,85,VALID,0,
2013-04-26, 03:36:05,VALID,917.046,VALID,0,VALID,97.0842,VALID,0,VALID,19.8588,VALID,85,VALID,0,
2013-04-26, 03:37:05,VALID,917.048,VALID,0,VALID,97.0842,VALID,0,VALID,19.8393,VALID,85,VALID,0,
2013-04-26, 03:38:05,VALID,917.05,VALID,0,VALID,97.1223,VALID,0,VALID,19.8393,VALID,85,VALID,0,
2013-04-26, 03:39:05,VALID,917.049,VALID,0,VALID,97.1147,VALID,0,VALID,19.8003,VALID,85,VALID,0,
2013-04-26, 03:40:05,VALID,917.041,VALID,0,VALID,97.1071,VALID,0,VALID,19.8408,VALID,85,VALID,0,
2013-04-26, 03:41:05,VALID,917.02,VALID,0,VALID,97.0918,VALID,0,VALID,19.8213,VALID,85,VALID,0,
2013-04-26, 03:42:05,VALID,917.019,VALID,0,VALID,97.1071,VALID,0,VALID,19.8213,VALID,85,VALID,0,
2013-04-26, 03:43:05,VALID,917.008,VALID,0,VALID,97.1071,VALID,0,VALID,19.8213,VALID,85,VALID,0,
2013-04-26, 03:44:05,VALID,916.99,VALID,0,VALID,97.1071,VALID,0,VALID,19.8018,VALID,85,VALID,0,
2013-04-26, 03:45:05,VALID,917.001,VALID,0,VALID,97.1147,VALID,0,VALID,19.7823,VALID,85,VALID,0,
2013-04-26, 03:46:05,VALID,916.99,VALID,0,VALID,97.1299,VALID,0,VALID,19.7613,VALID,86,VALID,0,
2013-04-26, 03:47:05,VALID,917.018,VALID,0,VALID,97.1071,VALID,0,VALID,19.7823,VALID,85,VALID,0,
2013-04-26, 03:48:05,VALID,916.982,VALID,0,VALID,97.1376,VALID,0,VALID,19.7823,VALID,85,VALID,0,
2013-04-26, 03:49:05,VALID,917.007,VALID,0,VALID,97.1376,VALID,0,VALID,19.7628,VALID,85,VALID,0,
2013-04-26, 03:50:05,VALID,917.031,VALID,0,VALID,97.1376,VALID,0,VALID,19.7823,VALID,85,VALID,0,
2013-04-26, 03:51:05,VALID,917.019,VALID,0,VALID,97.1604,VALID,0,VALID,19.7823,VALID,86,VALID,0,
2013-04-26, 03:52:05,VALID,916.988,VALID,0,VALID,97.1681,VALID,0,VALID,19.7433,VALID,107,VALID,0,
2013-04-26, 03:53:05,VALID,917.016,VALID,0,VALID,97.1528,VALID,0,VALID,19.7433,VALID,123,VALID,0,
2013-04-26, 03:54:05,VALID,916.998,VALID,0,VALID,97.1757,VALID,0,VALID,19.7628,VALID,123,VALID,0,
2013-04-26, 03:55:05,VALID,917.007,VALID,0,VALID,97.1681,VALID,0,VALID,19.7433,VALID,123,VALID,0,
2013-04-26, 03:56:05,VALID,917.023,VALID,0,VALID,97.1757,VALID,0,VALID,19.7433,VALID,123,VALID,0,
2013-04-26, 03:57:05,VALID,916.985,VALID,0,VALID,97.1681,VALID,0,VALID,19.7823,VALID,122,VALID,0,
2013-04-26, 03:58:05,VALID,916.977,VALID,0,VALID,97.1528,VALID,0,VALID,19.7823,VALID,122,VALID,0,
2013-04-26, 03:59:05,VALID,916.997,VALID,0,VALID,97.1681,VALID,0,VALID,19.7823,VALID,122,VALID,0,
2013-04-26, 04:00:05,VALID,916.964,VALID,0,VALID,97.1681,VALID,0,VALID,19.8018,VALID,122,VALID,0,